map of TZX home
TZX - Airport
Location
City:  Trabzon, Trabzon, Turkey
Name:Trabzon AB
ICAO:LTCG
IATA:TZX

Details
Type:Airport (Aerodrome, Airfield)
Use:Public/Civil, Military
Latitude:4059'42"N (40.995108)
Longitude:3947'23"E (39.789728)
Datum:WGS 1984
Elevation:104 ft (32 m)
Variation:6.37E (WMM2015 magnetic declination)
0.09 annual change
Runways:1
Longest:8661 × 148 ft (2640 × 45 m), paved

Time
Time Zone:UTC+3
Local Time:

Weather
METAR:LTCG 180250Z 20004KT CAVOK 23/17 Q1006 NOSIG
TAF:LTCG 171040Z 1712/1812 VRB02KT 9999 SCT035
TEMPO 1712/1716 FEW020 BKN030
BECMG 1716/1719 CAVOK
BECMG 1809/1811 SCT035

Related Locations
Nearby:
Farthest:RVV: 11176 mi / 17986 km
Raivavae, Tubuai Islands, Austral Islands, PF

Find:

   beyond  
but within

Other Information
Maps:
NOTAMs:
Links:
Sources:

  
  • flag of Turkey
  

Sectional Chart

Flight Planning
at skyvector.com

Satellite Image

Google Maps Satellite view

 

Copyright © 2004-2018 Karl L. Swartz. All rights reserved.
The Great Circle Mapper name and logo are trademarks of the Great Circle Mapper.
All other trademarks mentioned herein belong to their respective owners.
Please see credits for attibutions and further copyright information.

  Follow gcmap on Facebook Follow gcmap on Twitter Follow gcmap on Google+ GCmap on LinkedIn

hCard Microformat

Geo Microformat